Location: Observatoire de l'Aigle
(47.0607°N, 71.3152°W)
Time: 05:09:54
(UTC-04:00)

Daily predictions for brighter satellites

Satellite Brightness Start Highest point End
(mag) Time Altitude Azimuth Time Altitude Azimuth Time Altitude Azimuth
USA 81 4.2 00:09:44 69° NW 00:09:44 69° NW 00:14:43 10° N
Cosmos 2333 Rocket 3.5 00:08:25 23° W 00:11:15 36° NW 00:16:34 10° NNE
Cosmos 2237 Rocket 3.1 00:11:11 35° W 00:12:50 44° NW 00:18:18 10° NNE
Cosmos 2278 Rocket 3.8 00:09:36 10° NW 00:13:40 23° W 00:13:40 23° W
ATLAS 3B R/B 2.7 00:11:57 10° NW 00:18:52 73° NE 00:19:58 61° ESE
Meteor 2-13 Rocket 4.3 00:13:33 10° N 00:19:39 74° E 00:19:47 73° E
CZ-2C R/B 2.7 00:16:32 10° NNE 00:21:39 74° NE 00:21:39 74° NE
Cosmos 841 Rocket 3.7 00:24:59 66° N 00:24:59 66° N 00:29:29 10° NNE
Cosmos 1455 Rocket 4.1 00:20:09 10° NNW 00:23:19 44° NNW 00:23:19 44° NNW
ATLAS CENTAUR R/B 3.0 00:35:30 33° NNE 00:35:30 33° NNE 00:37:50 10° NNE
Meteor 2-4 Rocket 4.4 00:37:11 40° ENE 00:37:11 40° ENE 00:41:40 10° NNE
CZ-4C R/B 4.0 00:31:24 10° WNW 00:37:06 27° WSW 00:37:06 27° WSW
USA 238 DEB 3.8 00:31:08 10° NW 00:38:13 74° NE 00:39:56 54° ESE
USA 238 3.8 00:31:13 10° NW 00:38:19 73° NE 00:40:04 53° ESE
CZ-4B R/B 4.0 00:42:24 20° N 00:42:24 20° N 00:43:36 10° N
Cosmos 2219 Rocket 4.4 00:37:02 10° W 00:41:06 20° NW 00:45:12 10° N
ALOS 2 4.1 00:43:55 32° NW 00:43:55 32° NW 00:46:39 10° NNW
Meteor 1-13 Rocket 4.3 00:43:22 73° ENE 00:43:22 73° ENE 00:49:06 10° NNE
Cosmos 1943 4.4 00:46:29 31° E 00:46:29 31° E 00:50:32 10° NE
Meteor 1-19 Rocket 4.3 00:52:01 78° ENE 00:52:01 78° ENE 00:57:45 10° NNE
USA 215 4.2 00:50:28 10° ENE 00:55:03 31° ESE 00:55:03 31° ESE
Cosmos 1238 Rocket 3.7 00:58:41 67° NE 00:58:41 67° NE 01:03:59 10° NNE
Nadezhda 1 Rocket 3.8 01:01:48 78° WSW 01:02:01 79° W 01:08:19 10° N
Cosmos 1603 3.7 01:08:35 83° N 01:08:35 83° N 01:14:09 10° NNE
NOSS 3-2 (C) 4.5 01:02:30 10° NW 01:09:41 56° NE 01:16:49 13° ESE
CZ-2C R/B 4.4 01:11:04 26° WNW 01:11:04 26° WNW 01:14:08 10° NW
Cosmos 2369 Rocket 2.1 01:05:40 10° NNW 01:10:59 80° NNW 01:10:59 80° NNW
NOSS 2-3 (D) 4.2 01:12:56 68° NNW 01:12:56 68° NNW 01:18:31 10° NE
CENTAUR R/B 4.5 01:09:51 10° NW 01:16:36 35° NNE 01:23:57 10° E
Cosmos 44 Rocket 3.9 01:13:06 10° NNW 01:17:29 51° NE 01:17:29 51° NE
Cosmos 1295 Rocket 4.3 01:13:16 10° N 01:19:23 76° E 01:19:49 73° ESE
Cosmos 2228 4.3 01:17:30 10° N 01:21:10 36° ENE 01:21:10 36° ENE
Cosmos 1606 Rocket 4.4 01:20:06 10° N 01:23:25 49° N 01:23:25 49° N
Cosmos 1943 Rocket 2.4 01:20:55 10° NNW 01:26:36 65° ENE 01:27:14 60° E
Meteor 2-19 Rocket 4.2 01:23:22 10° NNW 01:29:27 80° W 01:29:37 79° WSW
USA 267 3.9 01:24:33 10° E 01:30:53 55° NNE 01:37:15 10° NW
Cosmos 1538 Rocket 4.4 01:32:44 55° E 01:32:44 55° E 01:37:19 10° NNE
Cosmos 304 Rocket 4.4 01:33:08 49° NW 01:33:08 49° NW 01:37:21 10° NNE
SL-16 R/B 3.8 01:32:42 22° W 01:34:42 27° NW 01:39:29 10° N
Meteor 1-23 Rocket 4.1 01:36:29 80° WNW 01:36:29 80° WNW 01:42:04 10° N
Cosmos 2341 Rocket 3.9 01:30:39 10° NNW 01:36:49 68° W 01:37:05 67° WSW
NOSS 3-4 (A) 4.3 01:38:53 36° ESE 01:39:03 36° ESE 01:44:53 10° NE
NOSS 3-4 (C) 4.3 01:38:59 36° ESE 01:39:09 36° ESE 01:44:59 10° NE
ATLAS 2AS CENTAUR R/B 3.4 01:36:17 38° WSW 01:39:28 62° NW 01:47:34 10° NE
PSLV R/B 4.3 01:37:27 10° NNE 01:41:26 53° ENE 01:41:26 53° ENE
COSMOS 2455 3.6 01:38:40 10° NNW 01:44:34 50° NE 01:48:29 21° ESE
Cosmos 1726 Rocket 4.3 01:42:05 10° NNW 01:45:23 49° NNW 01:45:23 49° NNW
Cosmos 1025 Rocket 4.0 01:47:41 43° NNW 01:47:41 43° NNW 01:50:56 10° N
H-2A R/B 3.6 01:45:18 10° N 01:47:47 36° NNW 01:47:47 36° NNW
NOSS 3-2 (A) 3.9 01:42:46 10° NW 01:50:12 85° SW 01:53:35 39° SSE
Cosmos 1959 Rocket 4.4 01:44:10 10° N 01:50:28 83° E 01:51:28 65° SSE
SL-08 R/B 4.4 01:54:49 10° N 02:01:10 88° E 02:02:15 64° SSE
Cosmos 773 Rocket 3.9 02:01:54 75° ESE 02:01:55 75° ESE 02:07:07 10° NNE
Cosmos 44 3.9 01:57:43 10° NW 02:00:41 42° NW 02:00:41 42° NW
Cosmos 724 4.3 02:00:33 10° NW 02:06:42 86° ENE 02:08:27 49° SE
Cosmos 1656 Rocket 3.9 02:01:35 10° NNW 02:06:58 61° ENE 02:08:53 38° ESE
ATLAS 3B R/B 3.9 02:03:32 10° WNW 02:07:12 23° W 02:07:12 23° W
ATLAS CENTAUR R/B 4.0 02:11:44 11° WNW 02:13:31 14° NNW 02:15:38 10° N
SL-08 R/B 3.5 02:18:02 57° ESE 02:18:44 65° ENE 02:23:30 10° N
Cosmos 2058 Rocket 4.0 02:14:33 10° NNW 02:17:39 38° NW 02:17:39 38° NW
Meteor 2-14 Rocket 4.3 02:19:46 10° N 02:25:57 86° W 02:27:30 53° S
Cosmos 1626 Rocket 3.5 02:28:56 76° E 02:28:56 76° E 02:33:18 10° NNE
Meteor 2-16 Rocket 4.3 02:23:17 10° N 02:29:25 89° E 02:31:13 49° S
Cosmos 1943 3.8 02:28:17 40° W 02:29:28 45° NW 02:34:53 10° NNE
Meteor 2-21 Rocket 4.3 02:25:33 10° NNW 02:31:42 74° W 02:33:05 54° SSW
BREEZE-M DEB (TANK) 3.0 02:33:33 61° SSE 02:33:47 62° SSE 02:44:20 10° ENE
Cosmos 2218 Rocket 4.3 02:30:59 10° NNW 02:36:52 46° W 02:37:36 44° WSW
Helios 1A Rocket 3.7 02:33:48 10° N 02:37:16 41° NW 02:37:16 41° NW
Cosmos 2366 rocket 4.2 02:33:15 10° NNW 02:39:18 50° W 02:40:17 46° WSW
USA 215 3.2 02:33:11 10° NE 02:39:45 83° NW 02:42:24 40° WSW
Resurs 1-4 Rocket 3.2 02:36:30 10° NNE 02:41:22 36° E 02:43:44 24° SE
Cosmos 2056 Rocket 4.2 02:36:36 10° NNW 02:41:53 54° ENE 02:46:26 13° SE
SL-16 R/B 2.8 02:37:42 20° SSE 02:42:08 65° ENE 02:48:15 10° N
NPP 3.6 02:37:27 10° NNE 02:42:54 83° ESE 02:44:14 53° S
Cosmos 292 Rocket 4.3 02:43:25 44° W 02:43:55 46° WNW 02:48:37 10° NNE
CBERS-1 3.9 02:43:10 10° NNE 02:48:19 84° ESE 02:49:31 54° S
Cosmos 1680 Rocket 3.4 02:47:40 58° SSW 02:48:45 88° WNW 02:54:03 10° NNE
Cosmos 1544 3.6 02:45:35 10° N 02:49:13 54° ENE 02:49:32 52° E
Cosmos 1602 Rocket 3.5 02:50:04 67° W 02:50:17 69° W 02:54:44 10° N
Aureole 1 Rocket 3.1 02:50:40 63° SW 02:51:24 81° WNW 02:55:33 10° NNE
Cosmos 2369 Rocket 4.2 02:51:27 10° WNW 02:52:45 13° WNW 02:52:45 13° WNW
CZ-2D R/B 2.8 02:49:58 10° NNE 02:55:06 47° E 02:57:36 27° SSE
ADEOS 4.2 02:54:54 10° NNE 03:00:01 51° E 03:02:29 28° SSE
Cosmos 1271 Rocket 3.1 02:56:56 10° N 03:00:39 57° ENE 03:01:36 42° SE
NOSS 3-2 (C) 4.2 02:53:37 10° NW 03:00:42 46° WSW 03:04:06 31° SSW
Lacrosse 5 rocket 2.7 03:01:29 30° SSE 03:02:15 32° SE 03:06:24 10° ENE
Cosmos 374 Rocket 4.0 02:58:32 10° NW 03:02:22 88° SW 03:03:02 59° SE
Cosmos 1805 3.3 02:58:29 10° N 03:02:26 76° E 03:03:09 56° SSE
IRS-1D 4.0 02:57:40 10° NNE 03:02:49 57° E 03:05:18 30° SSE
NOSS 8 (A) 4.4 03:05:10 79° NE 03:05:10 79° NE 03:08:33 10° NE
ADEOS Rocket 3.4 03:00:30 10° NNE 03:06:28 62° ESE 03:10:33 24° S
Meteor 1-4 Rocket 3.3 03:03:07 10° NNW 03:06:09 42° WNW 03:06:09 42° WNW
AQUA 3.8 03:02:26 10° N 03:07:13 72° WNW 03:08:22 50° SW
CENTAUR R/B 3.1 03:00:29 10° NW 03:08:18 89° NE 03:16:44 10° SE
SL-27 R/B 2.7 03:08:55 59° SE 03:09:13 62° ESE 03:12:48 10° NNE
Cosmos 1943 Rocket 3.6 03:05:37 10° NW 03:08:43 20° W 03:08:43 20° W
ARIANE 5 R/B 2.8 03:06:49 10° NNE 03:12:03 64° ESE 03:14:41 29° S
USA 267 3.2 03:07:21 10° SE 03:13:51 64° SW 03:20:22 10° WNW
Cosmos 1371 Rocket 4.0 03:12:27 10° NNW 03:17:46 62° WSW 03:20:17 31° S
Cosmos 2082 Rocket 4.5 03:14:55 10° SE 03:18:35 18° E 03:22:16 10° ENE
Cosmos 1842 3.1 03:18:39 60° SW 03:19:09 69° W 03:23:03 10° N
Abrixas 2.9 03:20:06 56° NE 03:20:06 56° NE 03:22:28 10° ENE
Cosmos 1766 4.1 03:16:22 10° NNW 03:19:43 35° W 03:19:43 35° W
RESURS DK-1 2.6 03:24:25 45° WSW 03:25:20 58° WNW 03:29:26 10° NNE
UNK 3.7 03:24:01 39° SSW 03:25:33 61° W 03:30:06 10° NNW
Cosmos-2242 3.8 03:21:39 10° N 03:25:58 51° ENE 03:30:15 10° SSE
COSMOS 2406 3.2 03:24:34 35° SW 03:27:07 73° WNW 03:32:54 10° NNE
IRS-1C 4.3 03:23:32 10° N 03:28:46 58° WNW 03:31:01 33° SW
NOSS 2-2 (D) 4.0 03:28:06 33° S 03:29:36 50° ESE 03:34:11 10° NE
NOSS 3-4 (A) 3.9 03:26:18 27° WSW 03:29:44 55° NW 03:36:13 10° NE
NOSS 3-4 (C) 3.9 03:26:24 27° WSW 03:29:49 55° NW 03:36:19 10° NE
USA 161 3.0 03:27:48 15° SE 03:29:50 35° ENE 03:32:29 10° N
Nadezhda 3 Rocket 4.3 03:27:31 31° SW 03:30:17 51° WNW 03:36:29 10° N
COSMOS 2455 3.4 03:24:57 10° NW 03:30:18 34° WSW 03:31:32 31° SW
EXPRESS MD2 3.8 03:24:14 10° WNW 03:31:33 86° NNE 03:35:05 10° ESE
Cosmos 839 Rocket 4.1 03:26:04 10° NW 03:32:21 87° WSW 03:39:37 10° SSE
Cosmos 1758 Rocket 3.5 03:31:28 31° S 03:33:30 84° E 03:37:51 10° N
Cosmos 921 Rocket 3.0 03:29:05 10° NNW 03:33:34 68° WSW 03:36:19 23° S
GEOS 3 Rocket 3.7 03:33:19 10° NE 03:38:37 79° SE 03:41:34 28° SSW
Cosmos 1818 3.9 03:36:03 25° SSW 03:39:06 60° ESE 03:44:29 10° NE
CZ-3A R/B 2.2 03:40:53 16° N 03:40:53 16° N 03:42:22 10° NE
COSMOS 2487 4.2 03:38:50 14° SSE 03:41:11 28° ESE 03:44:18 10° NE
Cosmos 1707 3.7 03:41:16 15° SSE 03:44:13 46° E 03:47:56 10° NNE
ADEOS II 4.2 03:41:18 10° NE 03:45:31 24° E 03:49:41 10° SE
NOSS 2-2 (C) 3.6 03:45:54 31° SSW 03:47:51 74° SE 03:52:40 10° NE
DNEPR-1 R/B 3.3 03:45:52 10° NW 03:50:06 79° SW 03:54:30 10° SSE
Cosmos 1470 2.6 03:46:59 10° N 03:50:54 81° W 03:53:57 16° S
Cosmos 1953 Rocket 3.7 03:52:53 27° SSW 03:55:09 57° WNW 03:59:35 10° N
MOS 1 Rocket 3.7 03:51:29 10° NNE 03:55:46 56° E 04:00:06 10° S
Cosmos 1378 4.3 03:52:52 10° SSE 03:56:24 41° E 03:59:57 10° NNE
Cosmos 1953 3.0 03:53:32 10° NNW 03:57:12 35° W 03:58:31 28° SW
Cosmos 1727 Rocket 4.0 03:51:57 11° S 03:57:56 82° E 04:04:09 10° N
CZ-2D R/B 3.4 03:53:50 10° NNE 03:57:57 81° ESE 04:00:51 18° S
Cosmos 1153 Rocket 4.4 03:58:12 10° N 04:04:21 86° W 04:10:30 10° S
UNKNOWN OBJECT B 2.8 04:01:38 10° N 04:05:36 69° WNW 04:08:20 20° SSW
Cosmos 2098 Rocket 2.3 04:07:15 10° NNW 04:10:08 46° W 04:11:30 24° SSW
Cosmos 389 Rocket 2.9 04:12:16 10° NNW 04:15:45 42° W 04:18:29 15° SSW
Resurs 1-4 Rocket 2.9 04:16:26 10° N 04:21:10 34° WNW 04:24:50 15° WSW
Cosmos 1802 Rocket 4.5 04:15:13 10° N 04:21:40 68° E 04:28:02 10° SSE
USA 215 4.2 04:16:16 10° NE 04:22:21 43° NNW 04:28:26 10° W
Cosmos 1733 3.9 04:20:06 10° NNW 04:23:33 33° W 04:26:17 14° SSW
MOZ.5/SAFIR/RUBIN 5/SL-8 4.3 04:20:39 10° SSW 04:24:59 39° W 04:29:24 10° NNW
Cosmos 1697 Rocket 2.9 04:19:57 10° NNW 04:25:36 76° ENE 04:31:13 10° SSE
Cosmos 1459 Rocket 4.1 04:19:36 10° N 04:25:48 83° E 04:32:02 10° S
SL-16 R/B 3.6 04:22:47 15° SW 04:26:15 23° W 04:31:05 10° NW
PSLV R/B 4.3 04:24:25 10° NNE 04:28:31 66° ESE 04:32:37 10° S
Cosmos 2278 3.9 04:26:47 10° NW 04:32:19 51° WSW 04:37:48 10° S
Okean O Rocket 2.2 04:28:47 10° NNE 04:33:11 59° E 04:37:32 10° S
CZ-2D R/B 3.2 04:30:30 10° N 04:34:58 28° WNW 04:38:57 12° WSW
CZ-3 R/B 4.5 04:33:10 10° SSW 04:39:21 13° S 04:43:25 10° SSE
Cosmos 158 Rocket 4.4 04:34:50 10° S 04:39:47 62° ESE 04:44:54 10° NNE
Cosmos 2369 4.0 04:34:44 10° NW 04:40:11 45° WSW 04:45:36 10° S
Lacrosse 5 rocket 2.0 04:37:11 12° WSW 04:41:24 57° NNW 04:45:58 10° NE
Cosmos 2322 Rocket 4.4 04:44:31 10° NNW 04:49:34 31° NE 04:54:36 10° ESE
ARIANE 5 R/B 4.0 04:46:50 10° NNW 04:50:42 21° WNW 04:54:34 10° WSW
EO 1 Del DPAF 3.3 04:47:05 10° SSE 04:50:57 85° ENE 04:54:50 10° NNW
ADEOS Rocket 4.2 04:46:49 10° N 04:51:40 27° WNW 04:56:54 10° WSW
Meteor 2-17 Rocket 4.4 04:46:02 10° NNW 04:52:06 76° W 04:58:08 10° S
CZ-4B R/B 3.1 04:49:41 10° NNE 04:54:00 83° WNW 04:58:27 10° SSW
Meteor 2-5 Rocket 4.1 04:49:05 10° SSW 04:54:39 52° WNW 05:00:23 10° N
Abrixas 2.4 04:52:02 10° WNW 04:54:50 76° N 04:57:40 10° E
Tiangong 1 3.0 04:54:25 10° SW 04:55:35 12° SSW 04:56:46 10° S
USA 267 4.4 04:53:30 10° SSW 04:57:43 18° WSW 05:01:58 10° W
CENTAUR R/B 3.9 04:52:08 10° WNW 04:58:24 26° WSW 05:04:56 10° SSW
Cosmos 1656 3.9 04:53:19 10° NW 04:58:28 45° WSW 05:03:35 10° S
Cosmos 1452 Rocket 4.5 04:54:19 10° NW 04:58:39 26° W 05:02:58 10° SSW
Cosmos 1980 Rocket 2.4 04:54:01 10° NNW 04:59:46 84° ENE 05:05:26 10° SSE
USA 161 3.7 04:58:57 10° WSW 04:59:48 11° W 05:00:40 10° WNW
Cosmos 1833 Rocket 2.7 04:55:23 10° SSW 05:01:00 85° WNW 05:06:41 10° NNE
Cosmos 1674 4.4 04:58:07 10° SSE 05:01:38 37° E 05:05:11 10° NNE
Cosmos 2082 Rocket 2.3 04:56:16 10° SSW 05:01:59 78° WNW 05:07:43 10° NNE
Cosmos 2100 Rocket 4.3 04:59:31 10° NNW 05:05:26 48° W 05:11:17 10° SSW
CZ-4B R/B 3.2 05:01:52 10° NNE 05:07:17 86° WNW 05:12:36 10° SSW
